Weather History for Cross City, FL

Change the Weather History Date:

Sunday, May 6, 2012

  Actual Average Record
Temperature  
Mean Temperature 24 °C 22 °C  
Max Temperature 32 °C 29 °C 32 °C (2007)
Min Temperature 17 °C 14 °C 8 °C (2013)
Degree Days  
Heating Degree Days 0 0  
Month to date heating degree days 0  
Since 1 July heating degree days 1303  
Cooling Degree Days 11 7  
Month to date cooling degree days 38  
Year to date cooling degree days 220  
Growing Degree Days 26 (Base 50)    
Moisture  
Dew Point 18 °C    
Average Humidity 71    
Maximum Humidity 96    
Minimum Humidity 33    
Precipitation  
Precipitation 0.00 mm 2.29 mm 0.56 mm (2011)
Month to date precipitation 0.40  
Year to date precipitation 14.88  
Sea Level Pressure  
Sea Level Pressure 1014 hPa    
Wind  
Wind Speed 6 km/h (West)    
Max Wind Speed 21 km/h    
Max Gust Speed 32 km/h    
T = Trace of Precipitation, MM = Missing Value Source: NWS Daily Summary

Daily Weather History Graph

Daily Weather History Graph

Search for Another Location

Airport:

Trip Planner

Search our weather history database for the weather conditions in past years. The results will help you decide how hot, cold, wet, or windy it might be!

Date:

Astronomy

May. 06, 2012 Rise Set
Actual Time 6:45 AM EDT 8:12 PM EDT
Civil Twilight 6:20 AM EDT 8:38 PM EDT
Nautical Twilight 5:49 AM EDT 9:08 PM EDT
Astronomical Twilight 5:17 AM EDT 9:40 PM EDT
Moon 9:10 PM EDT (5/6) 6:58 AM EDT (5/6)
Length of Visible Light 14h 18m
Length of Day
13h 27m
Full, 100% of the Moon is Illuminated
May 6
Full
May 12
Last Quarter
May 20
New
May 28
First Quarter
Jun 4
Full

Hourly Weather History & Observations

Time (EDT) Temp. Heat Index Dew Point Humidity Pressure Visibility Wind Dir Wind Speed Gust Speed Precip Events Conditions
12:53 AM 21.7 °C - 20.0 °C 90% 1014.2 hPa - West 5.6 km/h / 1.5 m/s - N/A   Unknown
1:53 AM 21.7 °C - 20.0 °C 90% 1013.9 hPa - WNW 5.6 km/h / 1.5 m/s - N/A   Unknown
2:53 AM 21.7 °C - 20.0 °C 90% 1013.6 hPa - WNW 9.3 km/h / 2.6 m/s - N/A   Unknown
3:53 AM 20.6 °C - 19.4 °C 93% 1013.7 hPa - Calm Calm - N/A   Unknown
4:53 AM 18.9 °C - 18.3 °C 96% 1013.7 hPa - Calm Calm - N/A   Unknown
5:53 AM 17.8 °C - 17.2 °C 96% 1013.5 hPa - Calm Calm - N/A   Unknown
6:53 AM 17.2 °C - 16.1 °C 93% 1014.1 hPa - Calm Calm - N/A   Unknown
7:53 AM 20.6 °C - 18.9 °C 90% 1014.6 hPa - Calm Calm - N/A   Unknown
8:53 AM 23.9 °C - 19.4 °C 76% 1015.1 hPa - West 5.6 km/h / 1.5 m/s - N/A   Unknown
9:53 AM 26.1 °C - 20.0 °C 69% 1015.0 hPa - Variable 7.4 km/h / 2.1 m/s - N/A   Unknown
10:53 AM 28.9 °C 30.2 °C 18.9 °C 55% 1014.7 hPa - WNW 9.3 km/h / 2.6 m/s - N/A   Unknown
11:53 AM 29.4 °C 30.1 °C 17.8 °C 49% 1014.7 hPa - West 18.5 km/h / 5.1 m/s - N/A   Unknown
12:53 PM 30.0 °C 30.9 °C 18.3 °C 49% 1014.5 hPa - West 14.8 km/h / 4.1 m/s 27.8 km/h / 7.7 m/s N/A   Unknown
1:53 PM 31.1 °C 31.5 °C 17.2 °C 43% 1014.5 hPa - West 16.7 km/h / 4.6 m/s 27.8 km/h / 7.7 m/s N/A   Unknown
2:53 PM 31.1 °C 31.5 °C 17.2 °C 43% 1013.8 hPa - West 18.5 km/h / 5.1 m/s 27.8 km/h / 7.7 m/s N/A   Unknown
3:53 PM 30.0 °C 30.9 °C 18.3 °C 49% 1012.9 hPa - West 16.7 km/h / 4.6 m/s - N/A   Unknown
4:53 PM 30.6 °C 31.6 °C 18.3 °C 48% 1012.3 hPa - WSW 18.5 km/h / 5.1 m/s 31.5 km/h / 8.7 m/s N/A   Unknown
5:53 PM 28.9 °C 29.9 °C 18.3 °C 53% 1013.0 hPa - SW 20.4 km/h / 5.7 m/s 29.6 km/h / 8.2 m/s N/A   Unknown
6:53 PM 27.2 °C 28.2 °C 18.3 °C 58% 1013.1 hPa - WSW 16.7 km/h / 4.6 m/s - N/A   Unknown
7:53 PM 25.6 °C - 19.4 °C 68% 1013.8 hPa - West 9.3 km/h / 2.6 m/s - N/A   Unknown
8:53 PM 23.9 °C - 19.4 °C 76% 1014.2 hPa - Calm Calm - N/A   Unknown
9:53 PM 23.3 °C - 18.3 °C 73% 1014.1 hPa - Calm Calm - N/A   Unknown
10:53 PM 21.1 °C - 18.3 °C 84% 1013.5 hPa - Calm Calm - N/A   Unknown
11:53 PM 19.4 °C - 17.8 °C 90% 1012.9 hPa - Calm Calm - N/A   Unknown